Flag for Canada Weather past 2 weeks in Regina, Saskatchewan, Canada

Now
61 °F

Passing clouds.


Feels Like: 61 °F
Forecast: 58 / 81 °F
Wind: 9 mph from Southeast

Location: Regina Weather Station

Current Time: Jul 31, 2014 at 4:47:32 AM

Latest Report: Jul 31, 2014 at 4:00 AM


Visibility: 15 mi

Pressure: 30.06 "Hg

Humidity: 83%

Dew point: 55 °F

Location of ReginaLocation

Historic Weather in Regina — Graph

°F

Regina temperature yesterday

Maximum temperature yesterday: 81 °F (at 5:00 PM)
Minimum temperature yesterday: 55 °F (at 5:00 AM)
Average temperature yesterday: 69 °F

Past Weeks' High & Low Weather Summary

 TemperatureHumidityPressure
High84 °F (Jul 19, 4:00 PM)100% (Jul 19, 3:00 AM)30.34 "Hg (Jul 19, 3:00 AM)
Low50 °F (Jul 19, 3:00 AM)36% (Jul 16, 1:00 PM)29.52 "Hg (Jul 18, 4:00 AM)
Average66 °F74%29.96 "Hg
* Reported Jul 16 3:00 AM — Jul 31 3:00 AM, Regina, Weather by CustomWeather, © 2014

Note: Actual official high and low records may vary slightly from our data, if they occured in-between our weather recording intervals... More about our weather records

Advertising

Regina weather history for previous 24 hours

 ConditionsComfort  
Time TempWeatherWind HumidityBarometerVisibility
3:00 AM
Jul 31
63 °FPassing clouds.12 mph83%30.06 "Hg15 mi
2:00 AM63 °FClear.12 mph83%30.07 "Hg15 mi
1:00 AM64 °FClear.10 mph78%30.08 "Hg15 mi
12:00 AM64 °FPassing clouds.10 mph83%30.09 "Hg15 mi
11:00 PM
Jul 30
66 °FPassing clouds.12 mph78%30.09 "Hg15 mi
10:00 PM68 °FPartly cloudy.10 mph73%30.09 "Hg15 mi
9:00 PM72 °FPassing clouds.12 mph65%30.09 "Hg15 mi
8:00 PM73 °FScattered showers. Partly sunny.12 mph61%30.09 "Hg15 mi
7:00 PM73 °FBroken clouds.9 mph61%30.11 "Hg15 mi
6:00 PM79 °FPartly sunny.13 mph48%30.11 "Hg15 mi
5:00 PM81 °FScattered showers. Partly sunny.9 mph42%30.11 "Hg15 mi
4:00 PM77 °FPartly sunny.9 mph51%30.13 "Hg15 mi
3:00 PM75 °FSprinkles. Partly sunny.2 mph61%30.17 "Hg15 mi
2:00 PM79 °FScattered clouds.10 mph45%30.15 "Hg15 mi
1:00 PM77 °FBroken clouds.10 mph51%30.16 "Hg15 mi
12:00 PM75 °FBroken clouds.9 mph54%30.18 "Hg15 mi
11:00 AM77 °FBroken clouds.8 mph51%30.18 "Hg15 mi
10:00 AM73 °FPassing clouds.6 mph53%30.20 "Hg15 mi
9:00 AM70 °FPassing clouds.6 mph64%30.20 "Hg15 mi
8:00 AM64 °FPassing clouds.6 mph73%30.20 "Hg15 mi
7:00 AM59 °FSunny.6 mph88%30.20 "Hg15 mi
6:00 AM55 °FPassing clouds.6 mph94%30.20 "Hg15 mi
5:00 AM55 °FPassing clouds.5 mph94%30.20 "Hg15 mi
4:00 AM57 °FClear.2 mph94%30.19 "Hg15 mi
Weather by CustomWeather, © 2014

See weather overviewHow to use our weather pages